Meteo pe oră la Almirante

Astăzi, 21 Ianuarie, Joi

Timp Temperatura Precipitaţii Vânt Presiune Umiditate
00:00 +25°C° 0.6 mm 2 m/s 755 mmHg 89%
01:00 +25°C° 0 mm 2 m/s 755 mmHg 90%
02:00 +25°C° 0.5 mm 2 m/s 755 mmHg 90%
03:00 +25°C° 0.5 mm 2 m/s 754 mmHg 91%
04:00 +24°C° 0.5 mm 3 m/s 754 mmHg 91%
05:00 +24°C° 0.3 mm 2 m/s 754 mmHg 90%
06:00 +24°C° 0.3 mm 2 m/s 755 mmHg 88%
07:00 +24°C° 0.3 mm 2 m/s 755 mmHg 87%
08:00 +26°C° 0.1 mm 2 m/s 755 mmHg 84%
09:00 +27°C° 0.1 mm 2 m/s 756 mmHg 81%
10:00 +28°C° 0.1 mm 2 m/s 756 mmHg 77%
11:00 +28°C° 0.4 mm 2 m/s 756 mmHg 77%
12:00 +29°C° 0.4 mm 2 m/s 755 mmHg 76%
13:00 +29°C° 0.4 mm 2 m/s 755 mmHg 76%
14:00 +30°C° 0.2 mm 2 m/s 754 mmHg 74%
15:00 +30°C° 0.2 mm 2 m/s 754 mmHg 72%
16:00 +30°C° 0.2 mm 2 m/s 753 mmHg 70%
17:00 +29°C° 0.1 mm 2 m/s 753 mmHg 76%
18:00 +27°C° 0.1 mm 1 m/s 753 mmHg 83%
19:00 +26°C° 0.1 mm 1 m/s 754 mmHg 89%
20:00 +26°C° 0.2 mm 1 m/s 754 mmHg 88%
21:00 +25°C° 0.2 mm 1 m/s 755 mmHg 88%
22:00 +25°C° 0.2 mm 1 m/s 756 mmHg 87%
23:00 +25°C° 0.3 mm 1 m/s 755 mmHg 86%

Mâine, 22 Ianuarie, Vineri

Timp Temperatura Precipitaţii Vânt Presiune Umiditate
00:00 +25°C° 0.3 mm 1 m/s 755 mmHg 85%
01:00 +25°C° 0.3 mm 1 m/s 755 mmHg 84%
02:00 +25°C° 0.4 mm 1 m/s 755 mmHg 84%
03:00 +25°C° 0.4 mm 1 m/s 755 mmHg 84%
04:00 +25°C° 0.4 mm 1 m/s 754 mmHg 85%
05:00 +25°C° 0.1 mm 1 m/s 755 mmHg 85%
06:00 +25°C° 0.1 mm 2 m/s 755 mmHg 86%
07:00 +25°C° 0.1 mm 2 m/s 755 mmHg 87%
08:00 +26°C° 0.1 mm 2 m/s 756 mmHg 80%
09:00 +28°C° 0.1 mm 2 m/s 756 mmHg 74%
10:00 +29°C° 0.1 mm 2 m/s 756 mmHg 67%
11:00 +29°C° 0.1 mm 1 m/s 756 mmHg 67%
12:00 +30°C° 0.1 mm 1 m/s 756 mmHg 67%
13:00 +30°C° 0.1 mm 1 m/s 755 mmHg 67%
14:00 +30°C° 0 mm 1 m/s 755 mmHg 66%
15:00 +30°C° 0 mm 2 m/s 754 mmHg 65%
16:00 +30°C° 0 mm 2 m/s 754 mmHg 64%
17:00 +29°C° 0 mm 2 m/s 754 mmHg 72%
18:00 +27°C° 0 mm 1 m/s 754 mmHg 79%
19:00 +26°C° 0 mm 1 m/s 755 mmHg 86%
20:00 +26°C° 0.1 mm 1 m/s 755 mmHg 87%
21:00 +25°C° 0.1 mm 1 m/s 756 mmHg 87%
22:00 +25°C° 0.1 mm 1 m/s 756 mmHg 87%
23:00 +25°C° 0 mm 1 m/s 756 mmHg 85%

Poimâine, 23 Ianuarie, Sâmbătă

Timp Temperatura Precipitaţii Vânt Presiune Umiditate
00:00 +25°C° 0 mm 1 m/s 756 mmHg 84%
01:00 +25°C° 0 mm 1 m/s 756 mmHg 82%
02:00 +25°C° 0 mm 1 m/s 755 mmHg 81%
03:00 +25°C° 0 mm 1 m/s 755 mmHg 80%
04:00 +24°C° 0 mm 1 m/s 754 mmHg 79%
05:00 +24°C° 0.1 mm 1 m/s 755 mmHg 78%
06:00 +24°C° 0.1 mm 1 m/s 755 mmHg 78%
07:00 +24°C° 0.1 mm 1 m/s 756 mmHg 77%
08:00 +26°C° 0 mm 1 m/s 756 mmHg 72%
09:00 +28°C° 0 mm 1 m/s 756 mmHg 67%
10:00 +30°C° 0 mm 1 m/s 757 mmHg 62%
11:00 +30°C° 0.1 mm 2 m/s 756 mmHg 63%
12:00 +30°C° 0.1 mm 2 m/s 756 mmHg 64%
13:00 +31°C° 0.1 mm 3 m/s 755 mmHg 66%
14:00 +30°C° 0.2 mm 2 m/s 755 mmHg 68%
15:00 +30°C° 0.2 mm 2 m/s 754 mmHg 71%
16:00 +29°C° 0.2 mm 2 m/s 753 mmHg 74%
17:00 +28°C° 0.1 mm 2 m/s 754 mmHg 79%
18:00 +27°C° 0.1 mm 2 m/s 754 mmHg 84%
19:00 +26°C° 0.1 mm 1 m/s 754 mmHg 88%
20:00 +26°C° 0.4 mm 1 m/s 755 mmHg 88%
21:00 +26°C° 0.4 mm 1 m/s 755 mmHg 89%
22:00 +25°C° 0.4 mm 1 m/s 756 mmHg 89%
23:00 +25°C° 0.1 mm 1 m/s 756 mmHg 88%

24 Ianuarie, Duminică

Timp Temperatura Precipitaţii Vânt Presiune Umiditate
00:00 +25°C° 0.1 mm 1 m/s 755 mmHg 87%
01:00 +24°C° 0.1 mm 1 m/s 755 mmHg 87%
02:00 +24°C° 0.1 mm 1 m/s 755 mmHg 86%
03:00 +24°C° 0.1 mm 2 m/s 755 mmHg 85%
04:00 +24°C° 0.1 mm 2 m/s 754 mmHg 84%
05:00 +24°C° 0 mm 2 m/s 755 mmHg 84%
06:00 +24°C° 0 mm 2 m/s 755 mmHg 83%
07:00 +24°C° 0 mm 2 m/s 755 mmHg 83%
08:00 +26°C° 0 mm 2 m/s 755 mmHg 75%
09:00 +28°C° 0 mm 2 m/s 756 mmHg 68%
10:00 +30°C° 0 mm 1 m/s 756 mmHg 60%
11:00 +31°C° 0 mm 2 m/s 756 mmHg 59%
12:00 +31°C° 0 mm 2 m/s 755 mmHg 59%
13:00 +33°C° 0 mm 3 m/s 755 mmHg 59%
14:00 +31°C° 0.1 mm 3 m/s 754 mmHg 62%
15:00 +31°C° 0.1 mm 3 m/s 753 mmHg 65%
16:00 +30°C° 0.1 mm 3 m/s 753 mmHg 68%
17:00 +29°C° 0.1 mm 2 m/s 753 mmHg 75%
18:00 +28°C° 0.1 mm 2 m/s 753 mmHg 82%
19:00 +26°C° 0.1 mm 2 m/s 754 mmHg 89%
20:00 +26°C° 0.2 mm 1 m/s 754 mmHg 90%
21:00 +26°C° 0.2 mm 1 m/s 754 mmHg 90%
22:00 +25°C° 0.2 mm 1 m/s 755 mmHg 91%
23:00 +25°C° 0.1 mm 1 m/s 755 mmHg 90%

25 Ianuarie, Luni

Timp Temperatura Precipitaţii Vânt Presiune Umiditate
00:00 +25°C° 0.1 mm 2 m/s 754 mmHg 89%
01:00 +24°C° 0.1 mm 2 m/s 754 mmHg 89%
02:00 +24°C° 0.1 mm 2 m/s 754 mmHg 88%
03:00 +24°C° 0.1 mm 2 m/s 754 mmHg 86%
04:00 +24°C° 0.1 mm 2 m/s 753 mmHg 85%
05:00 +24°C° 0.1 mm 2 m/s 754 mmHg 82%
06:00 +25°C° 0.1 mm 1 m/s 754 mmHg 79%
07:00 +25°C° 0.1 mm 1 m/s 754 mmHg 76%
08:00 +26°C° 0.1 mm 1 m/s 755 mmHg 72%
09:00 +28°C° 0.1 mm 1 m/s 755 mmHg 69%
10:00 +29°C° 0.1 mm 1 m/s 756 mmHg 65%
11:00 +30°C° 0 mm 1 m/s 755 mmHg 63%
12:00 +31°C° 0 mm 2 m/s 755 mmHg 61%
13:00 +31°C° 0 mm 2 m/s 754 mmHg 59%
14:00 +31°C° 0.1 mm 3 m/s 754 mmHg 62%
15:00 +31°C° 0.1 mm 3 m/s 753 mmHg 66%
16:00 +30°C° 0.1 mm 3 m/s 752 mmHg 69%
17:00 +29°C° 0.2 mm 2 m/s 753 mmHg 76%
18:00 +28°C° 0.2 mm 2 m/s 753 mmHg 83%
19:00 +26°C° 0.2 mm 1 m/s 753 mmHg 89%
20:00 +26°C° 0.2 mm 1 m/s 754 mmHg 90%
21:00 +26°C° 0.2 mm 1 m/s 754 mmHg 90%
22:00 +25°C° 0.2 mm 2 m/s 755 mmHg 90%
23:00 +25°C° 0.3 mm 1 m/s 754 mmHg 89%

26 Ianuarie, Marţi

Timp Temperatura Precipitaţii Vânt Presiune Umiditate
00:00 +25°C° 0.3 mm 1 m/s 754 mmHg 89%
01:00 +25°C° 0.3 mm 1 m/s 754 mmHg 89%
02:00 +25°C° 0.4 mm 1 m/s 754 mmHg 89%
03:00 +25°C° 0.4 mm 2 m/s 754 mmHg 89%
04:00 +25°C° 0.4 mm 2 m/s 754 mmHg 89%
05:00 +25°C° 0.5 mm 2 m/s 754 mmHg 89%
06:00 +25°C° 0.5 mm 2 m/s 754 mmHg 89%
07:00 +25°C° 0.5 mm 2 m/s 755 mmHg 88%
08:00 +26°C° 0.3 mm 2 m/s 755 mmHg 86%
09:00 +27°C° 0.3 mm 2 m/s 755 mmHg 83%
10:00 +28°C° 0.3 mm 1 m/s 756 mmHg 80%
11:00 +28°C° 0.4 mm 2 m/s 755 mmHg 79%
12:00 +29°C° 0.4 mm 2 m/s 755 mmHg 78%
13:00 +30°C° 0.4 mm 2 m/s 755 mmHg 77%
14:00 +29°C° 0.3 mm 2 m/s 754 mmHg 77%
15:00 +29°C° 0.3 mm 2 m/s 753 mmHg 77%
16:00 +29°C° 0.3 mm 2 m/s 753 mmHg 77%
17:00 +28°C° 0.3 mm 2 m/s 753 mmHg 81%
18:00 +27°C° 0.3 mm 2 m/s 754 mmHg 86%
19:00 +26°C° 0.3 mm 1 m/s 754 mmHg 91%
20:00 +26°C° 0.2 mm 1 m/s 754 mmHg 91%
21:00 +26°C° 0.2 mm 1 m/s 755 mmHg 91%
22:00 +25°C° 0.2 mm 1 m/s 755 mmHg 91%
23:00 +25°C° 0.1 mm 1 m/s 755 mmHg 91%
Arată mai mult

Formular de consimțământ

Meteoprog și furnizorii noștri de servicii pot stoca și accesa date personale, precum cookies, identificatori de dispozitiv sau alte tehnologii similare pe dispozitivul dumneavoastră și procesa astfel de date pentru a personaliza conținutul și reclamele, dar și pentru a oferi caracteristici de social media și pentru a analiza traficul.

  • Stocarea și/sau accesarea informațiilor pe dispozitivul dumneavoastră

    Cookies, identificatori de dispozitiv sau alte informații pot fi stocate sau accesate pe dispozitiv în scopurile indicate mai sus.

  • Reclame și conținut personalizat, evaluarea reclamelor și a conținutului, informații despre audiențe și dezvoltarea produselor

    Reclamele și conținutul pot fi personalizate pe baza unui profil. Pot fi adăugate date suplimentare pentru a personaliza mai bine reclamele și conținutul. Performanța reclamelor și conținutului poate fi măsurată. Pot fi obținute informații despre utilizatorii care au văzut reclamele și conținutul. Aceste date pot fi utilizate pentru a dezvolta sau îmbunătăți experiența utilizatorilor, sistemele și software-ul.

Dând clic pe ‘Sunt de acord’, permiteți utilizarea cookie-urilor menționate, a identificatorilor de dispozitiv, balizelor web sau altor tehnologii similare. Setările pot fi modificate din browser-ul dispozitivului dumneavoastră.

În anumite scopuri, interesele legitime pot prima asupra consimțământului. Puteți citi mai multe informații în acest sens în Politica privind Confidențialitatea Datelor și Cookie.